TimePST,TemperatureF,Dew PointF,Humidity,Sea Level PressureIn,VisibilityMPH,Wind Direction,Wind SpeedMPH,Gust SpeedMPH,PrecipitationIn,Events,Conditions,WindDirDegrees,DateUTC
12:15 AM,10.4,6.8,85,29.89,5.0,Calm,Calm,-,N/A,,Clear,0,2013-02-21 08:15:00
12:35 AM,10.4,5.0,79,29.89,1.8,Calm,Calm,-,N/A,,Mist,0,2013-02-21 08:35:00
12:55 AM,10.4,5.0,79,29.89,7.0,Calm,Calm,-,N/A,,Scattered Clouds,0,2013-02-21 08:55:00
1:15 AM,8.6,5.0,85,29.89,1.2,Calm,Calm,-,N/A,Snow,Light Snow,0,2013-02-21 09:15:00
1:35 AM,8.6,5.0,85,29.89,2.5,Calm,Calm,-,N/A,,Clear,0,2013-02-21 09:35:00
1:55 AM,8.6,3.2,79,29.89,0.8,Calm,Calm,-,N/A,Snow,Light Snow,0,2013-02-21 09:55:00
2:15 AM,8.6,3.2,79,29.88,0.2,Calm,Calm,-,N/A,Snow,Heavy Snow,0,2013-02-21 10:15:00
2:35 AM,8.6,3.2,79,29.88,1.2,Calm,Calm,-,N/A,Snow,Light Snow,0,2013-02-21 10:35:00
2:55 AM,8.6,3.2,79,29.88,0.5,Calm,Calm,-,N/A,Snow,Heavy Snow,0,2013-02-21 10:55:00
3:15 AM,8.6,3.2,79,29.87,0.2,Calm,Calm,-,N/A,Snow,Heavy Snow,0,2013-02-21 11:15:00
3:55 AM,8.6,3.2,79,29.87,0.5,Calm,Calm,-,N/A,Snow,Light Snow,0,2013-02-21 11:55:00
4:15 AM,6.8,1.4,79,29.87,0.2,Calm,Calm,-,N/A,Snow,Heavy Snow,0,2013-02-21 12:15:00
4:35 AM,6.8,3.2,85,29.87,2.5,Calm,Calm,-,N/A,Snow,Light Snow,0,2013-02-21 12:35:00
4:55 AM,8.6,3.2,79,29.87,0.2,Calm,Calm,-,N/A,Snow,Heavy Snow,0,2013-02-21 12:55:00
5:15 AM,6.8,3.2,85,29.87,0.2,Calm,Calm,-,N/A,Snow,Snow,0,2013-02-21 13:15:00
5:35 AM,8.6,3.2,79,29.86,0.5,Calm,Calm,-,N/A,Snow,Snow,0,2013-02-21 13:35:00
5:55 AM,6.8,1.4,79,29.87,3.0,Calm,Calm,-,N/A,,Haze,0,2013-02-21 13:55:00
6:15 AM,8.6,3.2,79,29.87,3.0,Calm,Calm,-,N/A,,Haze,0,2013-02-21 14:15:00
6:35 AM,8.6,3.2,79,29.87,7.0,Calm,Calm,-,N/A,,Scattered Clouds,0,2013-02-21 14:35:00
6:55 AM,8.6,3.2,79,29.88,7.0,Calm,Calm,-,N/A,,Clear,0,2013-02-21 14:55:00
7:15 AM,10.4,5.0,79,29.87,1.2,Calm,Calm,-,N/A,,Mist,0,2013-02-21 15:15:00
7:35 AM,12.2,8.6,85,29.87,10.0,Calm,Calm,-,N/A,,Clear,0,2013-02-21 15:35:00
7:55 AM,14.0,10.4,86,29.88,10.0,Calm,Calm,-,N/A,,Clear,0,2013-02-21 15:55:00
8:15 AM,17.6,14.0,86,29.88,10.0,Calm,Calm,-,N/A,,Clear,0,2013-02-21 16:15:00
8:35 AM,23.0,15.8,74,29.88,10.0,Calm,Calm,-,N/A,,Clear,0,2013-02-21 16:35:00
8:55 AM,28.4,12.2,51,29.89,10.0,West,6.9,-,N/A,,Clear,280,2013-02-21 16:55:00
9:15 AM,30.2,1.4,29,29.89,10.0,West,9.2,-,N/A,,Clear,260,2013-02-21 17:15:00
9:35 AM,30.2,5.0,34,29.90,10.0,WSW,6.9,-,N/A,,Clear,250,2013-02-21 17:35:00
10:15 AM,28.4,8.6,43,29.92,10.0,WSW,8.1,-,N/A,,Mostly Cloudy,250,2013-02-21 18:15:00
10:35 AM,28.4,14.0,55,29.93,10.0,SW,9.2,-,N/A,,Overcast,220,2013-02-21 18:35:00
10:55 AM,28.4,14.0,55,29.93,10.0,WSW,5.8,-,N/A,,Mostly Cloudy,240,2013-02-21 18:55:00
11:15 AM,28.4,14.0,55,29.92,10.0,WSW,6.9,-,N/A,,Mostly Cloudy,240,2013-02-21 19:15:00
11:35 AM,28.4,14.0,55,29.91,10.0,South,4.6,-,N/A,,Mostly Cloudy,180,2013-02-21 19:35:00
11:55 AM,30.2,15.8,55,29.90,10.0,Calm,Calm,-,N/A,,Mostly Cloudy,0,2013-02-21 19:55:00
12:15 PM,30.2,10.4,44,29.90,10.0,ENE,9.2,-,N/A,,Scattered Clouds,70,2013-02-21 20:15:00
12:35 PM,30.2,12.2,47,29.89,10.0,North,6.9,-,N/A,,Scattered Clouds,10,2013-02-21 20:35:00
12:55 PM,30.2,10.4,44,29.89,10.0,NE,10.4,17.3,N/A,,Scattered Clouds,50,2013-02-21 20:55:00
1:15 PM,32.0,8.6,38,29.90,10.0,ENE,11.5,-,N/A,,Mostly Cloudy,60,2013-02-21 21:15:00
1:35 PM,32.0,10.4,41,29.90,10.0,NE,3.5,-,N/A,,Mostly Cloudy,50,2013-02-21 21:35:00
1:55 PM,30.2,10.4,44,29.91,10.0,North,8.1,16.1,N/A,,Mostly Cloudy,10,2013-02-21 21:55:00
2:15 PM,30.2,10.4,44,29.91,10.0,North,6.9,-,N/A,,Mostly Cloudy,360,2013-02-21 22:15:00
2:35 PM,30.2,14.0,51,29.92,10.0,NNW,8.1,-,N/A,,Scattered Clouds,340,2013-02-21 22:35:00
2:55 PM,32.0,10.4,41,29.91,10.0,East,9.2,-,N/A,,Clear,80,2013-02-21 22:55:00
3:15 PM,32.0,10.4,41,29.91,10.0,ENE,10.4,-,N/A,,Clear,70,2013-02-21 23:15:00
3:35 PM,32.0,10.4,41,29.91,10.0,ENE,9.2,-,N/A,,Clear,70,2013-02-21 23:35:00
3:55 PM,30.2,8.6,40,29.91,10.0,ENE,10.4,16.1,N/A,,Clear,60,2013-02-21 23:55:00
4:15 PM,30.2,10.4,44,29.92,10.0,North,5.8,-,N/A,,Clear,360,2013-02-22 00:15:00
4:35 PM,30.2,12.2,47,29.93,10.0,North,3.5,-,N/A,,Scattered Clouds,360,2013-02-22 00:35:00
4:55 PM,28.4,10.4,47,29.94,10.0,NW,3.5,-,N/A,,Scattered Clouds,320,2013-02-22 00:55:00
5:15 PM,28.4,10.4,47,29.94,10.0,NNW,5.8,-,N/A,,Clear,340,2013-02-22 01:15:00
5:35 PM,28.4,8.6,43,29.94,10.0,NE,4.6,-,N/A,,Clear,40,2013-02-22 01:35:00
5:55 PM,28.4,6.8,40,29.95,10.0,NE,8.1,-,N/A,,Clear,50,2013-02-22 01:55:00
6:15 PM,28.4,5.0,37,29.96,10.0,NE,5.8,-,N/A,,Clear,50,2013-02-22 02:15:00
6:35 PM,28.4,5.0,37,29.96,10.0,NE,6.9,-,N/A,,Clear,40,2013-02-22 02:35:00
6:55 PM,26.6,5.0,40,29.97,10.0,ENE,6.9,-,N/A,,Clear,60,2013-02-22 02:55:00
7:15 PM,23.0,8.6,54,29.98,10.0,ESE,4.6,-,N/A,,Clear,110,2013-02-22 03:15:00
7:35 PM,19.4,8.6,63,29.99,10.0,Calm,Calm,-,N/A,,Clear,0,2013-02-22 03:35:00
7:55 PM,17.6,8.6,68,30.00,10.0,Calm,Calm,-,N/A,,Clear,0,2013-02-22 03:55:00
8:15 PM,19.4,6.8,58,30.00,10.0,ESE,5.8,-,N/A,,Clear,110,2013-02-22 04:15:00
8:35 PM,21.2,6.8,54,30.01,10.0,SSE,3.5,-,N/A,,Clear,150,2013-02-22 04:35:00
8:55 PM,19.4,6.8,58,30.02,10.0,Calm,Calm,-,N/A,,Clear,0,2013-02-22 04:55:00
9:15 PM,19.4,6.8,58,30.03,10.0,ENE,3.5,-,N/A,,Clear,70,2013-02-22 05:15:00
9:35 PM,19.4,5.0,54,30.02,10.0,ENE,4.6,-,N/A,,Clear,70,2013-02-22 05:35:00
9:55 PM,17.6,5.0,58,30.02,10.0,Calm,Calm,-,N/A,,Clear,0,2013-02-22 05:55:00
10:15 PM,15.8,5.0,62,30.03,10.0,Calm,Calm,-,N/A,,Clear,0,2013-02-22 06:15:00
10:35 PM,15.8,6.8,68,30.03,10.0,Calm,Calm,-,N/A,,Clear,0,2013-02-22 06:35:00
10:55 PM,14.0,5.0,67,30.03,10.0,Calm,Calm,-,N/A,,Clear,0,2013-02-22 06:55:00
11:15 PM,14.0,5.0,67,30.03,10.0,Calm,Calm,-,N/A,,Clear,0,2013-02-22 07:15:00
11:35 PM,14.0,5.0,67,30.03,10.0,Calm,Calm,-,N/A,,Clear,0,2013-02-22 07:35:00
11:55 PM,12.2,5.0,73,30.03,10.0,Calm,Calm,-,N/A,,Clear,0,2013-02-22 07:55:00